Tracking 18852 objects as of 23-Nov-2017
HD Live streaming from Space Station
objects crossing your sky now

FENGYUN 1C DEB

Track FENGYUN 1C DEB now!
10-day predictions


NORAD ID: 37030
Int'l Code: 1999-025EDN
Perigee: 789.6 km
Apogee: 839.1 km
Inclination: 99.7 °
Period: 101.0 minutes
Semi major axis: 7185 km
RCS: 0.0111 m2 (small)
Launch date: May 10, 1999
Source: People's Republic of China (PRC)
Launch site: Taiyaun Space Center, China (TSC)

Note: This is SATELLITE DEBRIS
aabbcc
Your satellite tracking list
Your tracking list is empty




NASA's NSSDC Master Catalog

Two Line Element Set (TLE):
1 37030U 99025EDN 17326.24909887  .00002704  00000-0  11617-2 0  9995
2 37030  99.7154 333.2204 0034391  52.4744 307.9549 14.25379105470716
Source of the keplerian elements: AFSPC